This demonstration page uses our WeatherBlox Daily Observations layout. Learn more.

Left ArrowRight Arrow

39.51506, -84.39828

Hourly Observations for June 11, 2017

Temp ( °F °C ) Dew Point ( °F °C ) Humidity (%) Winds ( mph kmh ) Pressure ( in mb ) Visibility ( mi km ) Precip ( " mm )
12:15 am 00:15 Clear 69 20.8 56 13.3 62 62 SW 3 6 30.00 1016 10 16 0.00 0.00
12:35 am 00:35 Clear 69 20.8 58 14.2 66 66 Calm 30.00 1016 10 16 0.00 0.00
12:55 am 00:55 Clear 69 20.8 58 14.6 68 68 Calm 30.03 1017 10 16 0.00 0.00
1:15 am 01:15 Clear 66 19 58 14.5 75 75 Calm 30.03 1017 10 16 0.00 0.00
1:35 am 01:35 Clear 64 18 57 13.7 76 76 WSW 3 6 30.03 1017 10 16 0.00 0.00
1:55 am 01:55 Clear 64 18 57 13.8 77 77 Calm 30.03 1017 10 16 0.00 0.00
2:15 am 02:15 Clear 64 18 57 14 78 78 Calm 30.03 1017 10 16 0.00 0.00
2:35 am 02:35 Clear 64 17.8 56 13.1 74 74 Calm 30.03 1017 10 16 0.00 0.00
2:55 am 02:55 Clear 64 17.6 57 14.1 80 80 Calm 30.03 1017 10 16 0.00 0.00
3:15 am 03:15 Clear 63 17 56 13.6 81 81 Calm 30.03 1017 10 16 0.00 0.00
3:35 am 03:35 Clear 62 16.6 56 13.5 82 82 Calm 30.06 1018 10 16 0.00 0.00
3:55 am 03:55 Clear 62 16.5 56 13.4 82 82 Calm 30.06 1018 10 16 0.00 0.00
4:15 am 04:15 Clear 61 16 55 13 83 83 Calm 30.09 1019 10 16 0.00 0.00
4:35 am 04:35 Clear 60 15.6 55 12.7 83 83 Calm 30.09 1019 10 16 0.00 0.00
4:55 am 04:55 Clear 60 15.3 55 12.5 84 84 Calm 30.09 1019 10 16 0.00 0.00
5:15 am 05:15 Clear 60 15.3 55 12.5 84 84 Calm 30.09 1019 10 16 0.00 0.00
5:35 am 05:35 Hazy 60 15.4 55 12.6 84 84 Calm 30.09 1019 4 6 0.00 0.00
5:55 am 05:55 Hazy 60 15.3 55 12.5 84 84 Calm 30.12 1020 4 6 0.00 0.00
6:15 am 06:15 Sunny 59 15.1 54 12.4 84 84 Calm 30.12 1020 7 11 0.00 0.00
6:35 am 06:35 Hazy 60 15.3 55 12.7 85 85 Calm 30.12 1020 3 4 0.00 0.00
6:55 am 06:55 Hazy 60 15.3 55 12.7 85 85 Calm 30.12 1020 3 5 0.00 0.00
7:15 am 07:15 Sunny 61 16 56 13.3 84 84 Calm 30.12 1020 10 16 0.00 0.00
7:35 am 07:35 Sunny 63 17.2 58 14.7 85 85 Calm 30.12 1020 10 16 0.00 0.00
7:55 am 07:55 Sunny 69 20.8 62 16.9 78 78 Calm 30.12 1020 10 16 0.00 0.00
8:15 am 08:15 Sunny 70 21 60 15.6 71 71 Calm 30.12 1020 10 16 0.00 0.00
8:35 am 08:35 Sunny 74 23.6 61 16.1 63 63 SW 7 11 30.12 1020 10 16 0.00 0.00
8:55 am 08:55 Sunny 74 23.6 59 15.1 59 59 SW 7 11 30.12 1020 10 16 0.00 0.00
9:15 am 09:15 Sunny 77 24.9 60 15.7 57 57 SSW 8 13 30.12 1020 10 16 0.00 0.00
9:35 am 09:35 Sunny 77 25.1 59 14.9 53 53 SSW 9 15 30.12 1020 10 16 0.00 0.00
9:55 am 09:55 Sunny 79 26.1 60 15.3 51 51 SSW 8 13 30.12 1020 10 16 0.00 0.00
10:15 am 10:15 Sunny 80 26.5 59 15 49 49 SSW 7 11 30.12 1020 10 16 0.00 0.00
10:35 am 10:35 Sunny 81 27.2 58 14.7 46 46 SSW 9 15 30.12 1020 10 16 0.00 0.00
10:55 am 10:55 Sunny 82 27.9 58 14.5 44 44 SSW 10 17 30.12 1020 10 16 0.00 0.00
11:15 am 11:15 Sunny 82 28 57 13.9 42 42 SSW 10 17 30.12 1020 10 16 0.00 0.00
11:35 am 11:35 Sunny 83 28.3 58 14.5 43 43 SSW 9 15 30.12 1020 10 16 0.00 0.00
11:55 am 11:55 Sunny 84 28.9 57 13.7 39 39 SW 8 13 30.09 1019 10 16 0.00 0.00
12:15 pm 12:15 Sunny 86 30.2 56 13.4 36 36 SW 12 19 30.06 1018 10 16 0.00 0.00
12:35 pm 12:35 Sunny 86 30 56 13.3 36 36 SW 16 26 30.06 1018 10 16 0.00 0.00
12:55 pm 12:55 Sunny 87 30.5 57 14.1 37 37 SSW 10 17 30.06 1018 10 16 0.00 0.00
1:15 pm 13:15 Sunny 87 30.7 58 14.2 37 37 SSW 12 19 30.06 1018 10 16 0.00 0.00
1:35 pm 13:35 Sunny 90 32 60 15.6 37 37 SSW 12 19 30.06 1018 10 16 0.00 0.00
1:55 pm 13:55 Sunny 88 31.3 58 14.5 36 36 SW 10 17 30.06 1018 10 16 0.00 0.00
2:15 pm 14:15 Sunny 90 32.1 59 15 36 36 SSW 14 22 30.06 1018 10 16 0.00 0.00
2:35 pm 14:35 Sunny 90 32.1 56 13.3 32 32 SSW 17 28 30.06 1018 10 16 0.00 0.00
2:55 pm 14:55 Sunny 88 31 55 13 33 33 SSW 12 19 30.06 1018 10 16 0.00 0.00
3:15 pm 15:15 Sunny 87 30.3 56 13.2 35 35 SSW 17 28 30.06 1018 10 16 0.00 0.00
3:35 pm 15:35 Sunny 90 32.1 57 13.7 33 33 SW 10 17 30.06 1018 10 16 0.00 0.00
3:55 pm 15:55 Sunny 89 31.6 55 12.9 32 32 SSW 12 19 30.03 1017 10 16 0.00 0.00
4:15 pm 16:15 Sunny 90 32.1 54 12.3 30 30 SW 14 22 30.03 1017 10 16 0.00 0.00
4:35 pm 16:35 Sunny 87 30.8 54 12.4 32 32 SSW 14 22 30.03 1017 10 16 0.00 0.00
4:55 pm 16:55 Sunny 89 31.9 56 13.5 33 33 SSW 13 20 30.03 1017 10 16 0.00 0.00
5:15 pm 17:15 Sunny 90 32.1 55 12.8 31 31 SW 16 26 30.03 1017 10 16 0.00 0.00
5:35 pm 17:35 Sunny 90 32.1 57 14.1 34 34 SSW 13 20 30.03 1017 10 16 0.00 0.00
5:55 pm 17:55 Sunny 90 32.1 55 12.9 31 31 S 12 19 30.03 1017 10 16 0.00 0.00
6:15 pm 18:15 Sunny 90 32.1 53 11.9 29 29 SSW 16 26 30.03 1017 10 16 0.00 0.00
6:35 pm 18:35 Sunny 90 32.1 54 12.3 30 30 S 9 15 30.03 1017 10 16 0.00 0.00
6:55 pm 18:55 Sunny 90 32.1 54 12.1 29 29 S 13 20 30.00 1016 10 16 0.00 0.00
7:15 pm 19:15 Sunny 88 31.3 54 12.4 31 31 SSW 10 17 30.00 1016 10 16 0.00 0.00
7:35 pm 19:35 Sunny 86 30.2 55 12.6 34 34 SSW 8 13 30.00 1016 10 16 0.00 0.00
7:55 pm 19:55 Sunny 83 28.6 53 11.9 36 36 SSW 9 15 30.00 1016 10 16 0.00 0.00
8:15 pm 20:15 Sunny 83 28.3 55 12.5 38 38 S 8 13 30.03 1017 10 16 0.00 0.00
8:35 pm 20:35 Sunny 83 28.1 55 12.5 38 38 S 7 11 30.03 1017 10 16 0.00 0.00
8:55 pm 20:55 Sunny 81 27.4 56 13.2 42 42 SSW 6 9 30.03 1017 10 16 0.00 0.00
9:15 pm 21:15 Clear 80 26.5 56 13.5 45 45 S 6 9 30.03 1017 10 16 0.00 0.00
9:35 pm 21:35 Clear 80 26.5 55 12.9 43 43 S 6 9 30.03 1017 10 16 0.00 0.00
9:55 pm 21:55 Clear 77 25.1 59 15.1 54 54 SW 5 7 30.03 1017 10 16 0.00 0.00
10:15 pm 22:15 Clear 74 23.6 59 14.9 58 58 SSW 3 6 30.03 1017 10 16 0.00 0.00
10:35 pm 22:35 Clear 74 23.6 62 16.5 65 65 SW 3 6 30.03 1017 10 16 0.00 0.00
10:55 pm 22:55 Clear 71 21.5 60 15.8 70 70 SW 3 6 30.03 1017 10 16 0.00 0.00
11:15 pm 23:15 Clear 70 21 60 15.8 72 72 WSW 3 6 30.03 1017 10 16 0.00 0.00
11:35 pm 23:35 Clear 69 20.8 60 15.4 71 71 Calm 30.03 1017 10 16 0.00 0.00
11:55 pm 23:55 Clear 69 20.8 60 15.5 72 72 WSW 3 6 30.06 1018 10 16 0.00 0.00

Powered by AerisWeather